パンスターズ彗星

C/2017 C2 ( PanSTARRS )

English version
Home page
Updated on May 24, 2020

---------------------------------------------------------------------

・ プロフィール

発見日 2017年2月4日
発見光度 19.6等
発見者 Pan-STARRS 1 telescope (Haleakala)

・ 写真集

・ 軌道要素

Epoch 2017 Jan. 7.0 TT = JDT 2457760.5                                          
T 2017 Jan. 21.61286 TT                                 Rudenko                 
q   2.4309935            (2000.0)            P               Q                  
z  +0.0101725      Peri.  138.77427     -0.03648242     +0.56509730             
 +/-0.0000051      Node   249.81971     +0.51729326     +0.71634869             
e   0.9752707      Incl.  118.58315     +0.85503024     -0.40927936             
From 98 observations 2016 June 6-2017 Nov. 23, mean residual 0".6.              

・ 光度変化

        m1 = 11.5 + 5 logΔ + 14.0 log r

---------------------------------------------------------------------

軌道要素はM.P.E.C. 2020-K117に掲載されたものです。
光度グラフはComet for Windowsで作成したものです。

---------------------------------------------------------------------

Copyright(C) Seiichi Yoshida (comet@aerith.net). All rights reserved.